Language: 


Des rapports , des résumés tant et plus, au choix de chacun....


Données statistiques de la station
Quotidien Rapport Février 3, 2018 Unités:  Métrique    Anglais   les deux
« Précédent Jour
Suivant Jour »
Quotidien Hebdomadaire Mensuel Annuel Actuel
  Haut: Bas: Moyen:
Température: -17.8 °C -16.7 °C -15.7 °C
Pt de rosée: -17.8 °C -16.7 °C -15.8 °C
Humidité: Humidity % 86 % 96 %
Vitesse du vent: 0 km/h 0 km/h 2.4 km/h
Rafales: 0 km/h - -
Vent:- - SW
Pression: 0 hPa 33992.1 hPa -
Précipitation: 63.5 mm    
Historical Graphs
 
 
Données statistiques pour Février 3, 2018
Heure Température Point de rosée Pression Vent Vitesse du vent Refales Humidité Pluie (taux horaire)
-17.8 °C -17.8 °C 0 hPa Calm     Humidity % 0 mm
00:03 -16.7 °C -16.7 °C 34164.7 hPa Calm     98 % 0 mm
00:08 -16.7 °C -16.7 °C 34164.7 hPa Calm     98 % 0 mm
00:13 -16.6 °C -16.7 °C 34164.7 hPa Calm     98 % 0 mm
00:18 -16.6 °C -16.7 °C 34164.7 hPa West 7.6 km/h 7.6 km/h 98 % 0 mm
00:23 -16.4 °C -16.1 °C 34164.7 hPa Calm   7.6 km/h 98 % 0 mm
00:25 -16.4 °C -16.1 °C 34164.7 hPa Calm   7.6 km/h 98 % 0 mm
00:30 -16.3 °C -16.1 °C 34164.7 hPa West 6.9 km/h 6.9 km/h 98 % 0 mm
00:36 -16.3 °C -16.1 °C 34164.7 hPa Calm   6.9 km/h 98 % 0 mm
00:41 -16.3 °C -16.1 °C 34164.7 hPa Calm   6.4 km/h 98 % 0 mm
00:46 -16.2 °C -16.1 °C 34164.7 hPa Calm   9.3 km/h 98 % 0 mm
00:51 -16.2 °C -16.1 °C 34164.7 hPa Calm   9.3 km/h 98 % 0 mm
00:56 -16.2 °C -16.1 °C 34164.7 hPa Calm   8 km/h 98 % 0 mm
01:01 -16.2 °C -16.1 °C 34164.7 hPa Calm   8 km/h 98 % 0 mm
01:06 -16.2 °C -16.1 °C 34164.7 hPa Calm     98 % 0 mm
01:11 -16.3 °C -16.1 °C 34164.7 hPa West 3.4 km/h 6.4 km/h 98 % 0 mm
01:16 -16.3 °C -16.1 °C 34164.7 hPa Calm   6.4 km/h 98 % 0 mm
01:21 -16.4 °C -16.1 °C 34164.7 hPa Calm     98 % 0 mm
01:27 -16.5 °C -16.1 °C 34164.7 hPa Calm     98 % 0 mm
01:32 -16.6 °C -16.7 °C 34164.7 hPa West 6.4 km/h 6.4 km/h 98 % 0 mm
01:37 -16.6 °C -16.7 °C 34164.7 hPa Calm   11.1 km/h 98 % 0 mm
01:42 -16.6 °C -16.7 °C 34164.7 hPa West 8.9 km/h 11.1 km/h 98 % 0 mm
01:47 -16.5 °C -16.1 °C 34164.7 hPa Calm   10.3 km/h 98 % 0 mm
01:52 -16.6 °C -16.7 °C 34164.7 hPa Calm   10.3 km/h 98 % 0 mm
01:57 -16.6 °C -16.7 °C 34164.7 hPa Calm   2.9 km/h 98 % 0 mm
02:02 -16.7 °C -16.7 °C 34164.7 hPa Calm     98 % 0 mm
02:07 -16.6 °C -16.7 °C 34164.7 hPa Calm   2.3 km/h 98 % 0 mm
02:12 -16.6 °C -16.7 °C 34164.7 hPa Calm   8 km/h 98 % 0 mm
02:17 -16.5 °C -16.1 °C 34130.9 hPa Calm   8 km/h 98 % 0 mm
02:22 -16.5 °C -16.1 °C 34130.9 hPa Calm   7.6 km/h 98 % 7.62 mm
02:27 -16.4 °C -16.1 °C 34130.9 hPa Calm     98 % 7.62 mm
02:32 -16.4 °C -16.1 °C 34164.7 hPa Calm     98 % 7.62 mm
02:37 -16.4 °C -16.1 °C 34164.7 hPa Calm     98 % 7.62 mm
02:42 -16.3 °C -16.1 °C 34164.7 hPa Calm     98 % 7.62 mm
02:48 -16.3 °C -16.1 °C 34164.7 hPa WNW 4.2 km/h 6.9 km/h 98 % 7.62 mm
02:53 -16.3 °C -16.1 °C 34164.7 hPa WNW 8 km/h 12.2 km/h 98 % 7.62 mm
02:58 -16.3 °C -16.1 °C 34164.7 hPa Calm   12.2 km/h 98 % 7.62 mm
03:03 -16.2 °C -16.1 °C 34164.7 hPa Calm   5.1 km/h 98 % 7.62 mm
03:08 -16.2 °C -16.1 °C 34164.7 hPa West 5.6 km/h 5.6 km/h 98 % 7.62 mm
03:13 -16.2 °C -16.1 °C 34164.7 hPa West 2.9 km/h 5.6 km/h 98 % 12.7 mm
03:18 -16.2 °C -16.1 °C 34164.7 hPa West 6.4 km/h 8 km/h 98 % 20.32 mm
03:23 -16.1 °C -16.1 °C 34164.7 hPa Calm   8 km/h 98 % 12.7 mm
03:28 -16.1 °C -16.1 °C 34164.7 hPa Calm   7.6 km/h 98 % 12.7 mm
03:33 -16.1 °C -16.1 °C 34164.7 hPa Calm     98 % 12.7 mm
03:38 -16.2 °C -16.1 °C 34164.7 hPa Calm     98 % 12.7 mm
03:43 -16.2 °C -16.1 °C 34164.7 hPa Calm     98 % 12.7 mm
03:48 -16.2 °C -16.1 °C 34164.7 hPa Calm     98 % 12.7 mm
03:53 -16.2 °C -16.1 °C 34164.7 hPa Calm     98 % 12.7 mm
03:58 -16.2 °C -16.1 °C 34164.7 hPa Calm     98 % 12.7 mm
04:03 -16.3 °C -16.1 °C 34164.7 hPa Calm     98 % 20.32 mm
04:08 -16.3 °C -16.1 °C 34164.7 hPa Calm     98 % 20.32 mm
04:13 -16.3 °C -16.1 °C 34164.7 hPa Calm     98 % 7.62 mm
04:18 -16.3 °C -16.1 °C 34164.7 hPa Calm     98 % 7.62 mm
04:23 -16.3 °C -16.1 °C 34164.7 hPa Calm   5.6 km/h 98 % 7.62 mm
04:28 -16.3 °C -16.1 °C 34130.9 hPa Calm   5.6 km/h 98 % 7.62 mm
04:33 -16.4 °C -16.1 °C 34130.9 hPa Calm     98 % 7.62 mm
04:38 -16.5 °C -16.1 °C 34130.9 hPa Calm     98 % 7.62 mm
04:43 -16.6 °C -16.7 °C 34097 hPa Calm     98 % 7.62 mm
04:48 -16.7 °C -16.7 °C 34097 hPa Calm     98 % 7.62 mm
04:53 -16.7 °C -16.7 °C 34097 hPa Calm     98 % 7.62 mm
04:58 -16.7 °C -16.7 °C 34097 hPa Calm   3.4 km/h 98 % 7.62 mm
05:03 -16.6 °C -16.7 °C 34097 hPa Calm   3.4 km/h 98 % 0 mm
05:08 -16.6 °C -16.7 °C 34097 hPa Calm     98 % 0 mm
05:13 -16.6 °C -16.7 °C 34097 hPa Calm     98 % 0 mm
05:18 -16.6 °C -16.7 °C 34097 hPa Calm     98 % 0 mm
05:23 -16.6 °C -16.7 °C 34097 hPa Calm     98 % 0 mm
05:28 -16.6 °C -16.7 °C 34097 hPa Calm     98 % 0 mm
05:33 -16.5 °C -16.1 °C 34097 hPa Calm     98 % 0 mm
05:39 -16.5 °C -16.1 °C 34097 hPa Calm     98 % 0 mm
05:44 -16.5 °C -16.1 °C 34097 hPa Calm     98 % 0 mm
05:49 -16.5 °C -16.1 °C 34097 hPa Calm     98 % 0 mm
05:54 -16.5 °C -16.1 °C 34097 hPa Calm     98 % 0 mm
05:59 -16.5 °C -16.1 °C 34097 hPa Calm     98 % 0 mm
06:04 -16.4 °C -16.1 °C 34097 hPa Calm     98 % 0 mm
06:09 -16.4 °C -16.1 °C 34097 hPa Calm     98 % 0 mm
06:14 -16.3 °C -16.1 °C 34097 hPa Calm   6.9 km/h 98 % 0 mm
06:19 -16.3 °C -16.1 °C 34097 hPa Calm   6.9 km/h 98 % 0 mm
06:24 -16.3 °C -16.1 °C 34097 hPa Calm     98 % 0 mm
06:29 -16.3 °C -16.1 °C 34063.2 hPa Calm     98 % 0 mm
06:34 -16.3 °C -16.1 °C 34063.2 hPa Calm     98 % 0 mm
06:39 -16.3 °C -16.1 °C 34063.2 hPa Calm     98 % 0 mm
06:44 -16.2 °C -16.1 °C 34097 hPa Calm     98 % 0 mm
06:49 -16.2 °C -16.1 °C 34097 hPa Calm     98 % 0 mm
06:54 -16.2 °C -16.1 °C 34097 hPa Calm     98 % 0 mm
06:59 -16.2 °C -16.1 °C 34097 hPa Calm     98 % 0 mm
07:05 -16.2 °C -16.1 °C 34097 hPa Calm     98 % 0 mm
07:10 -16.2 °C -16.1 °C 34097 hPa Calm     98 % 0 mm
07:15 -16.2 °C -16.1 °C 34063.2 hPa Calm     98 % 0 mm
07:20 -16.2 °C -16.1 °C 34063.2 hPa Calm     98 % 0 mm
07:25 -16.1 °C -16.1 °C 34063.2 hPa Calm     98 % 0 mm
07:30 -16.1 °C -16.1 °C 34063.2 hPa Calm   7.6 km/h 98 % 0 mm
07:35 -16.1 °C -16.1 °C 34063.2 hPa Calm   7.6 km/h 98 % 0 mm
07:40 -16.1 °C -16.1 °C 34063.2 hPa Calm   2.3 km/h 98 % 0 mm
07:45 -16.2 °C -16.1 °C 34063.2 hPa Calm     98 % 0 mm
07:50 -16.2 °C -16.1 °C 34063.2 hPa Calm     98 % 0 mm
07:55 -16.2 °C -16.1 °C 34063.2 hPa Calm     98 % 0 mm
08:00 -16.2 °C -16.1 °C 34097 hPa Calm     98 % 0 mm
08:05 -16.2 °C -16.1 °C 34097 hPa Calm     98 % 0 mm
08:10 -16.2 °C -16.1 °C 34097 hPa Calm     98 % 0 mm
08:15 -16.2 °C -16.1 °C 34097 hPa Calm     98 % 0 mm
08:20 -16.1 °C -16.1 °C 34097 hPa Calm     98 % 0 mm
08:25 -16.1 °C -16.1 °C 34097 hPa Calm     98 % 0 mm
08:30 -16.1 °C -16.1 °C 34097 hPa Calm     98 % 0 mm
08:35 -16.1 °C -16.1 °C 34097 hPa Calm     98 % 0 mm
08:40 -16.1 °C -16.1 °C 34097 hPa Calm     98 % 0 mm
08:45 -16.1 °C -16.1 °C 34097 hPa Calm   6.9 km/h 98 % 0 mm
08:50 -16.1 °C -16.1 °C 34097 hPa Calm   6.9 km/h 98 % 0 mm
08:55 -16.1 °C -16.1 °C 34097 hPa Calm     98 % 0 mm
09:00 -16.1 °C -16.1 °C 34097 hPa Calm   2.3 km/h 98 % 0 mm
09:06 -16.1 °C -16.1 °C 34097 hPa Calm   2.3 km/h 98 % 0 mm
09:11 -16.1 °C -16.1 °C 34097 hPa Calm     98 % 0 mm
09:16 -16.1 °C -16.1 °C 34097 hPa Calm     98 % 0 mm
09:21 -16.1 °C -16.1 °C 34097 hPa Calm     98 % 0 mm
09:26 -16.1 °C -16.1 °C 34097 hPa Calm     98 % 0 mm
09:31 -16.1 °C -16.1 °C 34063.2 hPa Calm     98 % 0 mm
09:36 -16.1 °C -16.1 °C 34063.2 hPa Calm     98 % 0 mm
09:41 -16 °C -16.1 °C 34063.2 hPa Calm     98 % 0 mm
09:46 -15.9 °C -16.1 °C 34063.2 hPa Calm     98 % 0 mm
09:51 -15.9 °C -16.1 °C 34063.2 hPa Calm     98 % 0 mm
09:56 -15.9 °C -16.1 °C 34063.2 hPa Calm   12.7 km/h 98 % 0 mm
10:01 -15.8 °C -15.6 °C 34097 hPa Calm   12.7 km/h 98 % 0 mm
10:06 -15.8 °C -15.6 °C 34097 hPa Calm     98 % 0 mm
10:11 -15.8 °C -15.6 °C 34097 hPa Calm   10.3 km/h 98 % 0 mm
10:17 -15.8 °C -15.6 °C 34063.2 hPa Calm   10.3 km/h 98 % 0 mm
10:22 -15.8 °C -15.6 °C 34063.2 hPa Calm   5.1 km/h 98 % 0 mm
10:27 -15.7 °C -15.6 °C 34063.2 hPa Calm   7.6 km/h 98 % 0 mm
10:32 -15.7 °C -15.6 °C 34063.2 hPa Calm   7.6 km/h 98 % 0 mm
10:37 -15.6 °C -15.6 °C 34063.2 hPa Calm   9.3 km/h 98 % 0 mm
10:42 -15.6 °C -15.6 °C 34063.2 hPa WSW 9.3 km/h 14 km/h 98 % 0 mm
10:47 -15.6 °C -15.6 °C 34063.2 hPa Calm   14 km/h 98 % 0 mm
10:52 -15.5 °C -15.6 °C 34063.2 hPa Calm   11.1 km/h 98 % 0 mm
10:57 -15.4 °C -15.6 °C 34063.2 hPa SSW 3.4 km/h 8.9 km/h 98 % 0 mm
11:02 -15.4 °C -15.6 °C 34063.2 hPa Calm   8.9 km/h 98 % 0 mm
11:07 -15.3 °C -15 °C 34063.2 hPa SW 6.9 km/h 8.9 km/h 98 % 0 mm
11:12 -15.2 °C -15 °C 34063.2 hPa Calm   11.1 km/h 98 % 0 mm
11:17 -15.2 °C -15 °C 34063.2 hPa SSW 8 km/h 11.1 km/h 98 % 0 mm
11:22 -15.1 °C -15 °C 34063.2 hPa SSW 5.1 km/h 8.9 km/h 98 % 0 mm
11:27 -15 °C -15 °C 34063.2 hPa Calm   7.6 km/h 98 % 0 mm
11:32 -14.9 °C -15 °C 34063.2 hPa SW 6.4 km/h 9.3 km/h 98 % 0 mm
11:38 -14.9 °C -15 °C 34063.2 hPa Calm   9.3 km/h 98 % 0 mm
11:43 -14.9 °C -15 °C 34063.2 hPa Calm   9.3 km/h 98 % 0 mm
11:48 -14.8 °C -14.4 °C 34029.3 hPa Calm   12.7 km/h 98 % 0 mm
11:53 -14.8 °C -14.4 °C 34029.3 hPa SW 2.3 km/h 12.7 km/h 98 % 0 mm
11:58 -14.8 °C -14.4 °C 34029.3 hPa Calm   11.1 km/h 98 % 0 mm
12:03 -14.8 °C -14.4 °C 34063.2 hPa SW 4.2 km/h 15 km/h 98 % 0 mm
12:08 -14.7 °C -14.4 °C 34063.2 hPa Calm   15 km/h 98 % 0 mm
12:13 -14.7 °C -14.4 °C 34063.2 hPa WSW 10.3 km/h 15 km/h 98 % 0 mm
12:18 -14.6 °C -14.4 °C 34029.3 hPa WSW 14.5 km/h 15 km/h 98 % 0 mm
12:23 -14.6 °C -14.4 °C 34029.3 hPa WSW 9.3 km/h 16.3 km/h 98 % 0 mm
12:28 -14.6 °C -14.4 °C 34029.3 hPa Calm   16.3 km/h 98 % 0 mm
12:33 -14.5 °C -14.4 °C 34029.3 hPa WSW 12.2 km/h 15.6 km/h 98 % 0 mm
12:38 -14.4 °C -14.4 °C 34029.3 hPa SW 8.9 km/h 12.2 km/h 98 % 0 mm
12:43 -14.4 °C -14.4 °C 34029.3 hPa SW 11.1 km/h 14.5 km/h 98 % 0 mm
12:48 -14.4 °C -14.4 °C 34029.3 hPa WSW 11.1 km/h 14.5 km/h 98 % 0 mm
12:53 -14.3 °C -14.4 °C 34029.3 hPa SW 5.1 km/h 14.5 km/h 98 % 0 mm
12:58 -14.2 °C -14.4 °C 34029.3 hPa Calm   14 km/h 98 % 0 mm
13:03 -14.2 °C -13.9 °C 34029.3 hPa Calm   12.7 km/h 98 % 0 mm
13:08 -14.1 °C -13.9 °C 34029.3 hPa Calm   14 km/h 98 % 0 mm
13:13 -14.1 °C -13.9 °C 34029.3 hPa WSW 10.3 km/h 14.5 km/h 98 % 0 mm
13:18 -14.1 °C -13.9 °C 34029.3 hPa WSW 16.9 km/h 16.9 km/h 98 % 0 mm
13:23 -14.1 °C -13.9 °C 34029.3 hPa WSW 15 km/h 22.5 km/h 98 % 0 mm
13:28 -14.1 °C -13.9 °C 33992.1 hPa WSW 16.3 km/h 23.8 km/h 98 % 0 mm
13:33 -14.1 °C -13.9 °C 33992.1 hPa SW 16.3 km/h 23.8 km/h 98 % 0 mm
13:38 -14.1 °C -13.9 °C 33992.1 hPa SW 20.3 km/h 20.3 km/h 98 % 0 mm
13:44 -14.1 °C -13.9 °C 33992.1 hPa West 24.8 km/h 24.8 km/h 98 % 0 mm
13:49 -14.2 °C -14.4 °C 33992.1 hPa WSW 20.3 km/h 25.4 km/h 97 % 0 mm
13:54 -14.3 °C -14.4 °C 33992.1 hPa West 16.3 km/h 27.7 km/h 94 % 0 mm
13:59 -14.3 °C -15 °C 33992.1 hPa WSW 19.6 km/h 27.7 km/h 92 % 0 mm
14:04 -14.2 °C -15 °C 33992.1 hPa West 23 km/h 23 km/h 91 % 0 mm
14:09 -14.2 °C -15 °C 33992.1 hPa Calm   23 km/h 91 % 0 mm
14:14 -14.2 °C -15 °C 34029.3 hPa WSW 25.4 km/h 25.4 km/h 90 % 0 mm
14:19 -14.2 °C -15 °C 34029.3 hPa SW 12.7 km/h 25.4 km/h 90 % 0 mm
14:24 -14.2 °C -15 °C 34029.3 hPa SW 16.9 km/h 25.4 km/h 90 % 0 mm
14:29 -14.1 °C -14.4 °C 34029.3 hPa WSW 15.6 km/h 20.3 km/h 91 % 0 mm
14:34 -14.1 °C -15 °C 34029.3 hPa WSW 15 km/h 19.2 km/h 90 % 0 mm
14:39 -14.1 °C -15 °C 34029.3 hPa WSW 15.6 km/h 19.6 km/h 89 % 0 mm
14:44 -14.1 °C -15 °C 34029.3 hPa WSW 16.9 km/h 19.6 km/h 89 % 0 mm
14:49 -14.1 °C -15 °C 34029.3 hPa WSW 15.6 km/h 20.9 km/h 87 % 0 mm
14:54 -14.1 °C -15 °C 34029.3 hPa Calm   20.9 km/h 87 % 0 mm
14:59 -14.1 °C -15 °C 34029.3 hPa SSW 9.3 km/h 16.9 km/h 87 % 0 mm
15:04 -14.1 °C -15 °C 34029.3 hPa WSW 12.7 km/h 17.4 km/h 87 % 0 mm
15:09 -14.2 °C -15 °C 34029.3 hPa SW 22 km/h 22 km/h 86 % 0 mm
15:14 -14.2 °C -15.6 °C 34029.3 hPa WSW 15.6 km/h 22 km/h 86 % 0 mm
15:19 -14.2 °C -15.6 °C 34029.3 hPa Calm   19.2 km/h 86 % 0 mm
15:25 -14.2 °C -15.6 °C 34029.3 hPa Calm   19.2 km/h 86 % 0 mm
15:30 -14.2 °C -15.6 °C 34029.3 hPa WSW 15.6 km/h 16.3 km/h 86 % 0 mm
15:35 -14.2 °C -15.6 °C 34029.3 hPa WSW 14.5 km/h 16.3 km/h 86 % 0 mm
15:40 -14.3 °C -15.6 °C 34029.3 hPa WSW 15 km/h 19.2 km/h 86 % 0 mm
15:45 -14.4 °C -15.6 °C 34029.3 hPa WSW 15 km/h 19.2 km/h 86 % 0 mm
15:50 -14.4 °C -15.6 °C 34029.3 hPa SW 12.7 km/h 19.2 km/h 86 % 0 mm
15:55 -14.4 °C -15.6 °C 34029.3 hPa Calm   16.9 km/h 87 % 0 mm
16:00 -14.6 °C -15.6 °C 34029.3 hPa WSW 6.9 km/h 14.5 km/h 87 % 0 mm
16:05 -14.6 °C -15.6 °C 34029.3 hPa Calm   15 km/h 87 % 0 mm
16:10 -14.7 °C -15.6 °C 34029.3 hPa Calm   15 km/h 87 % 0 mm
16:15 -14.7 °C -15.6 °C 34029.3 hPa Calm   14.5 km/h 87 % 0 mm
16:20 -14.7 °C -15.6 °C 34029.3 hPa Calm   12.2 km/h 87 % 0 mm
16:26 -14.8 °C -15.6 °C 34029.3 hPa Calm   6.4 km/h 87 % 0 mm
16:31 -14.8 °C -15.6 °C 34029.3 hPa Calm   6.4 km/h 88 % 0 mm
16:36 -14.8 °C -15.6 °C 34029.3 hPa Calm   2.3 km/h 88 % 0 mm
16:41 -14.8 °C -15.6 °C 34029.3 hPa Calm     88 % 0 mm
16:46 -14.8 °C -15.6 °C 34029.3 hPa Calm     88 % 0 mm
16:51 -14.8 °C -15.6 °C 34029.3 hPa Calm     88 % 0 mm
16:56 -14.8 °C -15.6 °C 34029.3 hPa Calm     87 % 0 mm
17:01 -14.8 °C -15.6 °C 34029.3 hPa Calm     87 % 0 mm
17:06 -14.8 °C -15.6 °C 34029.3 hPa Calm     87 % 0 mm
17:11 -14.9 °C -16.1 °C 34029.3 hPa Calm     87 % 0 mm
17:16 -14.9 °C -16.1 °C 34029.3 hPa Calm     87 % 0 mm
17:21 -14.9 °C -16.1 °C 34029.3 hPa Calm   2.3 km/h 87 % 0 mm
17:26 -15 °C -16.1 °C 34029.3 hPa Calm   2.3 km/h 88 % 0 mm
17:32 -15.1 °C -16.1 °C 34029.3 hPa Calm     89 % 0 mm
17:37 -15.1 °C -16.1 °C 34029.3 hPa Calm     89 % 0 mm
17:42 -15.1 °C -16.1 °C 34029.3 hPa Calm     89 % 0 mm
17:47 -15.2 °C -16.1 °C 34029.3 hPa Calm     90 % 0 mm
17:52 -15.2 °C -16.1 °C 34029.3 hPa Calm     90 % 0 mm
17:57 -15.2 °C -16.1 °C 34029.3 hPa Calm   2.9 km/h 91 % 0 mm
18:02 -15.2 °C -16.1 °C 34029.3 hPa Calm   2.9 km/h 91 % 0 mm
18:07 -15.2 °C -16.1 °C 34029.3 hPa Calm     92 % 7.62 mm
18:12 -15.2 °C -16.1 °C 34029.3 hPa Calm     92 % 7.62 mm
18:17 -15.2 °C -16.1 °C 34029.3 hPa Calm     92 % 7.62 mm
18:22 -15.3 °C -15.6 °C 34029.3 hPa Calm     93 % 7.62 mm
18:27 -15.3 °C -15.6 °C 34029.3 hPa Calm     93 % 7.62 mm
18:32 -15.3 °C -16.1 °C 34029.3 hPa Calm   2.3 km/h 93 % 7.62 mm
18:37 -15.3 °C -16.1 °C 34029.3 hPa Calm   2.3 km/h 93 % 7.62 mm
18:42 -15.3 °C -16.1 °C 34029.3 hPa Calm     94 % 7.62 mm
18:47 -15.4 °C -16.1 °C 34029.3 hPa Calm     94 % 7.62 mm
18:52 -15.4 °C -16.1 °C 34029.3 hPa Calm   6.4 km/h 94 % 7.62 mm
18:57 -15.4 °C -15.6 °C 34029.3 hPa NNE 8 km/h 11.1 km/h 95 % 7.62 mm
19:02 -15.4 °C -15.6 °C 34029.3 hPa NNE 8 km/h 11.1 km/h 95 % 7.62 mm
19:07 -15.5 °C -16.1 °C 34029.3 hPa Calm   11.1 km/h 95 % 7.62 mm
19:12 -15.5 °C -15.6 °C 34029.3 hPa Calm   11.6 km/h 96 % 7.62 mm
19:18 -15.5 °C -15.6 °C 34029.3 hPa Calm   11.6 km/h 96 % 7.62 mm
19:23 -15.6 °C -15.6 °C 34029.3 hPa Calm   11.1 km/h 96 % 7.62 mm
19:28 -15.6 °C -15.6 °C 34029.3 hPa Calm   11.1 km/h 96 % 7.62 mm
19:33 -15.6 °C -15.6 °C 34063.2 hPa Calm   5.1 km/h 96 % 7.62 mm
19:38 -15.7 °C -16.1 °C 34063.2 hPa Calm   5.1 km/h 97 % 7.62 mm
19:43 -15.7 °C -16.1 °C 34063.2 hPa Calm   2.9 km/h 97 % 7.62 mm
19:48 -15.7 °C -16.1 °C 34063.2 hPa Calm     97 % 7.62 mm
19:53 -15.7 °C -16.1 °C 34063.2 hPa Calm     97 % 7.62 mm
19:58 -15.7 °C -15.6 °C 34063.2 hPa Calm     98 % 20.32 mm
20:03 -15.7 °C -15.6 °C 34063.2 hPa Calm     98 % 20.32 mm
20:08 -15.7 °C -15.6 °C 34063.2 hPa ENE 12.7 km/h 12.7 km/h 98 % 7.62 mm
20:13 -15.7 °C -15.6 °C 34063.2 hPa Calm   15 km/h 98 % 7.62 mm
20:18 -15.7 °C -15.6 °C 34063.2 hPa Calm   15 km/h 98 % 7.62 mm
20:23 -15.7 °C -15.6 °C 34063.2 hPa Calm   8 km/h 98 % 7.62 mm
20:28 -15.7 °C -15.6 °C 34063.2 hPa Calm   9.3 km/h 98 % 7.62 mm
20:33 -15.7 °C -15.6 °C 34063.2 hPa Calm   9.3 km/h 98 % 7.62 mm
20:38 -15.7 °C -15.6 °C 34063.2 hPa NE 5.1 km/h 7.6 km/h 98 % 7.62 mm
20:43 -15.8 °C -15.6 °C 34097 hPa Calm   9.8 km/h 98 % 20.32 mm
20:49 -15.8 °C -15.6 °C 34097 hPa Calm   9.8 km/h 98 % 20.32 mm
20:54 -15.8 °C -15.6 °C 34097 hPa Calm     98 % 20.32 mm
20:59 -15.8 °C -15.6 °C 34097 hPa Calm   9.3 km/h 98 % 7.62 mm
21:04 -15.8 °C -15.6 °C 34097 hPa Calm   9.3 km/h 98 % 7.62 mm
21:09 -15.8 °C -15.6 °C 34097 hPa Calm     98 % 7.62 mm
21:14 -15.8 °C -15.6 °C 34097 hPa Calm     98 % 7.62 mm
21:19 -15.9 °C -16.1 °C 34097 hPa ENE 6.4 km/h 6.4 km/h 98 % 7.62 mm
21:24 -15.9 °C -16.1 °C 34097 hPa Calm   6.4 km/h 98 % 7.62 mm
21:29 -15.9 °C -16.1 °C 34097 hPa Calm     98 % 7.62 mm
21:34 -15.9 °C -16.1 °C 34097 hPa Calm     98 % 7.62 mm
21:39 -15.9 °C -16.1 °C 34097 hPa Calm     98 % 7.62 mm
21:44 -15.9 °C -16.1 °C 34130.9 hPa Calm     98 % 0 mm
21:49 -15.9 °C -16.1 °C 34130.9 hPa Calm     98 % 0 mm
21:54 -15.9 °C -16.1 °C 34130.9 hPa Calm     98 % 0 mm
21:59 -15.9 °C -16.1 °C 34130.9 hPa Calm     98 % 0 mm
22:04 -15.9 °C -16.1 °C 34097 hPa Calm     98 % 0 mm
22:09 -15.9 °C -16.1 °C 34097 hPa Calm     98 % 0 mm
22:14 -15.9 °C -16.1 °C 34097 hPa Calm     98 % 0 mm
22:19 -16 °C -16.1 °C 34097 hPa Calm     98 % 0 mm
22:24 -16.1 °C -16.1 °C 34097 hPa Calm     98 % 0 mm
22:29 -16.1 °C -16.1 °C 34130.9 hPa Calm     98 % 0 mm
22:34 -16.1 °C -16.1 °C 34130.9 hPa Calm     98 % 0 mm
22:39 -16.2 °C -16.1 °C 34130.9 hPa Calm     98 % 0 mm
22:44 -16.2 °C -16.1 °C 34130.9 hPa Calm   3.4 km/h 98 % 0 mm
22:49 -16.3 °C -16.1 °C 34130.9 hPa North 2.9 km/h 5.1 km/h 98 % 0 mm
22:54 -16.3 °C -16.1 °C 34130.9 hPa Calm   5.1 km/h 98 % 0 mm
22:59 -16.3 °C -16.1 °C 34130.9 hPa Calm     98 % 0 mm
23:05 -16.4 °C -16.1 °C 34130.9 hPa Calm     98 % 0 mm
23:10 -16.4 °C -16.1 °C 34130.9 hPa Calm     98 % 0 mm
23:15 -16.4 °C -16.1 °C 34164.7 hPa Calm     98 % 0 mm
23:20 -16.5 °C -16.1 °C 34164.7 hPa Calm     98 % 0 mm
23:25 -16.5 °C -16.1 °C 34164.7 hPa Calm     98 % 0 mm
23:30 -16.5 °C -16.1 °C 34164.7 hPa Calm     98 % 0 mm
23:35 -16.6 °C -16.7 °C 34164.7 hPa Calm     98 % 0 mm
23:40 -16.6 °C -16.7 °C 34164.7 hPa Calm     98 % 0 mm
23:45 -16.6 °C -16.7 °C 34164.7 hPa Calm     98 % 0 mm
23:50 -16.6 °C -16.7 °C 34164.7 hPa Calm   5.1 km/h 98 % 0 mm
23:55 -16.7 °C -16.7 °C 34164.7 hPa Calm   8 km/h 98 % 0 mm
Le Gheer Warneton
Courtoisie de Weather Underground - 2.25 mb

Mise a jour : 18/02/2018 06:15:11
Généré par Cumulus 1.9.4 (1099)